Zurück zum Katalog

ONEWEB-0521

AktivKommunikationPO
NORAD 54139·PAYLOAD·🇬🇧 United Kingdom

Gestartet Oct 22, 2022 von Satish Dhawan Space Centre

Loading…

Nächste Überflüge (nächste 24 Stunden)

TLE

AktuellSource: CelesTrak SupGP

Epoche: Sep 14, 2026, 19:14 UTC

1 54139C 22138AC  26257.80191389 -.00000040  00000+0 -99187-4 0  2579
2 54139  87.9114 287.1101 0002112  99.7217  11.7075 13.19723944    10

Verfolge ONEWEB-0521 in Echtzeit mit AllMySat

Download on the App Store